When you browse on this site, cookies collect data to enhance your experience and personalize the content and advertising you see.
Visit our Privacy Policy to learn more. By continuing to use the site, you agree to this use of cookies and data.
  • In Hungary
  • List of Countries
  • For 7 days
  • Water Temperature
  • Satellite Maps
  • Weather Map
  • News
  • Weather Widgets
  • user-avatar
    Login

    Hourly Weather Tarpon Springs

    Today, 19 December, Wednesday

    Time Temperature Precipitation Wind Pressure Humidity
    00:00 +15°C° 0 mm 2 mps 763 mmHg 58%
    01:00 +14°C° 0 mm 3 mps 763 mmHg 57%
    02:00 +14°C° 0 mm 3 mps 763 mmHg 57%
    03:00 +14°C° 0 mm 3 mps 763 mmHg 56%
    04:00 +13°C° 0 mm 3 mps 763 mmHg 58%
    05:00 +13°C° 0 mm 3 mps 763 mmHg 61%
    06:00 +13°C° 0 mm 4 mps 763 mmHg 63%
    07:00 +14°C° 0 mm 4 mps 763 mmHg 61%
    08:00 +17°C° 0 mm 4 mps 764 mmHg 60%
    09:00 +18°C° 0 mm 4 mps 764 mmHg 58%
    10:00 +20°C° 0 mm 4 mps 763 mmHg 56%
    11:00 +22°C° 0 mm 4 mps 762 mmHg 54%
    12:00 +25°C° 0 mm 4 mps 762 mmHg 51%
    13:00 +24°C° 0.1 mm 3 mps 761 mmHg 55%
    14:00 +24°C° 0.1 mm 3 mps 761 mmHg 59%
    15:00 +24°C° 0.1 mm 3 mps 760 mmHg 63%
    16:00 +22°C° 0.3 mm 3 mps 761 mmHg 69%
    17:00 +21°C° 0.3 mm 4 mps 761 mmHg 75%
    18:00 +20°C° 0.3 mm 4 mps 761 mmHg 81%
    19:00 +20°C° 0.2 mm 4 mps 761 mmHg 82%
    20:00 +19°C° 0.2 mm 3 mps 760 mmHg 84%
    21:00 +19°C° 0.2 mm 3 mps 760 mmHg 85%
    22:00 +19°C° 0.8 mm 4 mps 760 mmHg 86%
    23:00 +19°C° 0.8 mm 5 mps 759 mmHg 86%

    Tomorrow, 20 December, Thursday

    Time Temperature Precipitation Wind Pressure Humidity
    00:00 +19°C° 0.8 mm 6 mps 759 mmHg 87%
    01:00 +18°C° 1.5 mm 7 mps 758 mmHg 88%
    02:00 +20°C° 1.5 mm 8 mps 757 mmHg 89%
    03:00 +19°C° 1.5 mm 9 mps 757 mmHg 90%
    04:00 +19°C° 5.5 mm 9 mps 756 mmHg 89%
    05:00 +19°C° 5.5 mm 9 mps 756 mmHg 88%
    06:00 +19°C° 5.5 mm 10 mps 755 mmHg 88%
    07:00 +21°C° 10.7 mm 9 mps 755 mmHg 89%
    08:00 +21°C° 10.7 mm 7 mps 755 mmHg 91%
    09:00 +21°C° 10.7 mm 6 mps 755 mmHg 92%
    10:00 +22°C° 2.2 mm 6 mps 754 mmHg 88%
    11:00 +22°C° 2.2 mm 7 mps 754 mmHg 83%
    12:00 +23°C° 2.2 mm 7 mps 753 mmHg 79%
    13:00 +23°C° 0.8 mm 7 mps 752 mmHg 80%
    14:00 +22°C° 0.8 mm 8 mps 752 mmHg 81%
    15:00 +22°C° 0.8 mm 8 mps 751 mmHg 83%
    16:00 +22°C° 1 mm 9 mps 752 mmHg 83%
    17:00 +22°C° 1 mm 9 mps 752 mmHg 84%
    18:00 +21°C° 1 mm 10 mps 752 mmHg 85%
    19:00 +21°C° 0.3 mm 10 mps 752 mmHg 81%
    20:00 +21°C° 0.3 mm 10 mps 752 mmHg 78%
    21:00 +19°C° 0.3 mm 10 mps 752 mmHg 74%
    22:00 +19°C° 0.1 mm 11 mps 752 mmHg 72%
    23:00 +18°C° 0.1 mm 12 mps 752 mmHg 69%

    Day after tomorrow, 21 December, Friday

    Time Temperature Precipitation Wind Pressure Humidity
    00:00 +17°C° 0.1 mm 13 mps 752 mmHg 67%
    01:00 +17°C° 0.1 mm 13 mps 752 mmHg 64%
    02:00 +17°C° 0.1 mm 13 mps 752 mmHg 61%
    03:00 +17°C° 0.1 mm 14 mps 752 mmHg 59%
    04:00 +17°C° 0.2 mm 14 mps 752 mmHg 59%
    05:00 +17°C° 0.2 mm 14 mps 752 mmHg 59%
    06:00 +15°C° 0.2 mm 14 mps 752 mmHg 60%
    07:00 +17°C° 0.3 mm 14 mps 753 mmHg 59%
    08:00 +17°C° 0.3 mm 13 mps 753 mmHg 59%
    09:00 +17°C° 0.3 mm 13 mps 754 mmHg 58%
    10:00 +17°C° 0.7 mm 13 mps 754 mmHg 60%
    11:00 +15°C° 0.7 mm 13 mps 754 mmHg 62%
    12:00 +15°C° 0.7 mm 13 mps 754 mmHg 64%
    13:00 +15°C° 0.2 mm 13 mps 755 mmHg 63%
    14:00 +15°C° 0.2 mm 12 mps 755 mmHg 61%
    15:00 +15°C° 0.2 mm 12 mps 755 mmHg 59%
    16:00 +14°C° 0.1 mm 12 mps 756 mmHg 60%
    17:00 +14°C° 0.1 mm 12 mps 757 mmHg 61%
    18:00 +13°C° 0.1 mm 11 mps 758 mmHg 63%
    19:00 +13°C° 0.1 mm 11 mps 759 mmHg 63%
    20:00 +13°C° 0.1 mm 11 mps 760 mmHg 63%
    21:00 +12°C° 0.1 mm 11 mps 760 mmHg 63%
    22:00 +12°C° 0 mm 11 mps 761 mmHg 62%
    23:00 +12°C° 0 mm 10 mps 761 mmHg 61%

    22 December, Saturday

    Time Temperature Precipitation Wind Pressure Humidity
    00:00 +12°C° 0 mm 10 mps 761 mmHg 61%
    01:00 +12°C° 0 mm 9 mps 762 mmHg 62%
    02:00 +11°C° 0 mm 8 mps 762 mmHg 62%
    03:00 +11°C° 0 mm 8 mps 762 mmHg 63%
    04:00 +11°C° 0 mm 7 mps 763 mmHg 64%
    05:00 +10°C° 0 mm 6 mps 763 mmHg 64%
    06:00 +10°C° 0 mm 6 mps 764 mmHg 65%
    07:00 +12°C° 0 mm 5 mps 765 mmHg 61%
    08:00 +13°C° 0 mm 5 mps 765 mmHg 57%
    09:00 +14°C° 0 mm 4 mps 766 mmHg 53%
    10:00 +15°C° 0 mm 4 mps 766 mmHg 50%
    11:00 +16°C° 0 mm 5 mps 765 mmHg 48%
    12:00 +17°C° 0 mm 5 mps 765 mmHg 45%
    13:00 +17°C° 0 mm 5 mps 765 mmHg 45%
    14:00 +18°C° 0 mm 4 mps 765 mmHg 45%
    15:00 +17°C° 0 mm 4 mps 765 mmHg 45%
    16:00 +15°C° 0 mm 4 mps 765 mmHg 47%
    17:00 +15°C° 0 mm 4 mps 766 mmHg 48%
    18:00 +14°C° 0 mm 3 mps 766 mmHg 50%
    19:00 +13°C° 0 mm 3 mps 767 mmHg 51%
    20:00 +14°C° 0 mm 2 mps 767 mmHg 52%
    21:00 +14°C° 0 mm 2 mps 767 mmHg 53%
    22:00 +13°C° 0 mm 2 mps 767 mmHg 54%
    23:00 +13°C° 0 mm 2 mps 767 mmHg 55%

    23 December, Sunday

    Time Temperature Precipitation Wind Pressure Humidity
    00:00 +12°C° 0 mm 1 mps 767 mmHg 57%
    01:00 +12°C° 0 mm 1 mps 767 mmHg 56%
    02:00 +12°C° 0 mm 1 mps 767 mmHg 56%
    03:00 +11°C° 0 mm 1 mps 767 mmHg 56%
    04:00 +11°C° 0 mm 1 mps 767 mmHg 54%
    05:00 +10°C° 0 mm 2 mps 767 mmHg 53%
    06:00 +10°C° 0 mm 2 mps 768 mmHg 51%
    07:00 +12°C° 0 mm 2 mps 768 mmHg 46%
    08:00 +13°C° 0 mm 2 mps 768 mmHg 41%
    09:00 +15°C° 0 mm 2 mps 769 mmHg 36%
    10:00 +16°C° 0 mm 2 mps 768 mmHg 33%
    11:00 +18°C° 0 mm 2 mps 768 mmHg 29%
    12:00 +20°C° 0 mm 1 mps 767 mmHg 25%
    13:00 +21°C° 0 mm 1 mps 767 mmHg 26%
    14:00 +21°C° 0 mm 1 mps 767 mmHg 26%
    15:00 +21°C° 0 mm 1 mps 766 mmHg 27%
    16:00 +20°C° 0 mm 1 mps 767 mmHg 30%
    17:00 +19°C° 0 mm 1 mps 767 mmHg 34%
    18:00 +18°C° 0 mm 1 mps 767 mmHg 38%
    19:00 +16°C° 0 mm 1 mps 767 mmHg 41%
    20:00 +16°C° 0 mm 1 mps 768 mmHg 43%
    21:00 +15°C° 0 mm 1 mps 768 mmHg 46%
    22:00 +15°C° 0 mm 1 mps 768 mmHg 47%
    23:00 +15°C° 0 mm 1 mps 767 mmHg 49%

    24 December, Monday

    Time Temperature Precipitation Wind Pressure Humidity
    00:00 +14°C° 0 mm 1 mps 767 mmHg 50%
    01:00 +14°C° 0 mm 1 mps 767 mmHg 50%
    02:00 +14°C° 0 mm 1 mps 767 mmHg 50%
    03:00 +13°C° 0 mm 1 mps 767 mmHg 50%
    04:00 +13°C° 0 mm 1 mps 767 mmHg 49%
    05:00 +13°C° 0 mm 1 mps 767 mmHg 49%
    06:00 +13°C° 0 mm 1 mps 767 mmHg 49%
    07:00 +14°C° 0 mm 1 mps 767 mmHg 46%
    08:00 +16°C° 0 mm 1 mps 768 mmHg 43%
    09:00 +19°C° 0 mm 1 mps 768 mmHg 40%
    10:00 +20°C° 0 mm 1 mps 767 mmHg 39%
    11:00 +21°C° 0 mm 1 mps 767 mmHg 38%
    12:00 +23°C° 0 mm 1 mps 766 mmHg 36%
    13:00 +23°C° 0 mm 1 mps 766 mmHg 39%
    14:00 +23°C° 0 mm 2 mps 766 mmHg 41%
    15:00 +23°C° 0 mm 2 mps 765 mmHg 43%
    16:00 +21°C° 0 mm 2 mps 766 mmHg 50%
    17:00 +20°C° 0 mm 2 mps 766 mmHg 57%
    18:00 +19°C° 0 mm 2 mps 766 mmHg 64%
    19:00 +18°C° 0 mm 2 mps 766 mmHg 66%
    20:00 +18°C° 0 mm 2 mps 766 mmHg 69%
    21:00 +17°C° 0 mm 2 mps 766 mmHg 71%
    22:00 +17°C° 0 mm 2 mps 766 mmHg 72%
    23:00 +16°C° 0 mm 2 mps 766 mmHg 72%
    Show more